St. Charles, IL

8:30 AM CDT on May 30, 2017 (GMT -0500)
Saint Charles County Smartt

Weather History for KSET - November, 2012

Change the Weather History Date:

Wednesday, November 21, 2012

  Actual Average (KSTL) Record (KSTL)
Temperature  
Mean Temperature 48 °F -  
Max Temperature 57 °F 50 °F 75 °F (1990)
Min Temperature 39 °F 33 °F 9 °F (1880)
Degree Days  
Heating Degree Days 17    
Moisture  
Dew Point 44 °F    
Average Humidity 94    
Maximum Humidity 100    
Minimum Humidity 74    
Precipitation  
Precipitation 0.02 in - - ()
Sea Level Pressure  
Sea Level Pressure 30.20 in    
Wind  
Wind Speed 2 mph (East)    
Max Wind Speed 8 mph    
Max Gust Speed -    
Visibility 2 miles    
Events Fog    
Averages and records for this station are not official NWS values.
T = Trace of Precipitation, MM = Missing Value Source: NWS Daily Summary

Daily Weather History Graph

Daily Weather History Graph

Search for Another Location

Airport or City:

Trip Planner

Search our weather history database for the weather conditions in past years. The results will help you decide how hot, cold, wet, or windy it might be!

Date:

Astronomy

Nov. 21, 2012 Rise Set
Actual Time 6:51 AM CST 4:43 PM CST
Civil Twilight 6:22 AM CST 5:12 PM CST
Nautical Twilight 5:50 AM CST 5:45 PM CST
Astronomical Twilight 5:18 AM CST 6:16 PM CST
Moon 12:57 PM CST (11/21) 12:14 AM CST (11/21)
Length of Visible Light 10h 49m
Length of Day
9h 51m
First Quarter, 62% of the Moon is Illuminated
Nov 21
First Quarter
Nov 28
Full
Dec 6
Last Quarter
Dec 13
New
Dec 19
First Quarter

Hourly Weather History & Observations

Time (CST) Temp. Windchill Dew Point Humidity Pressure Visibility Wind Dir Wind Speed Gust Speed Precip Events Conditions
12:54 AM 44.1 °F - 44.1 °F 100% 30.21 in 0.2 mi Calm Calm - N/A Fog Fog
1:54 AM 44.1 °F - 43.0 °F 96% 30.22 in 0.2 mi Calm Calm - N/A Fog Fog
2:54 AM 43.0 °F - 43.0 °F 100% 30.22 in 0.2 mi Calm Calm - N/A Fog Fog
3:54 AM 42.1 °F - 42.1 °F 100% 30.23 in 0.2 mi Calm Calm - N/A Fog Fog
4:54 AM 42.1 °F - 42.1 °F 100% 30.24 in 0.2 mi Calm Calm - 0.01 in Fog Fog
5:54 AM 43.0 °F - 42.1 °F 97% 30.25 in 0.2 mi Calm Calm - N/A Fog Fog
6:54 AM 42.1 °F - 42.1 °F 100% 30.27 in 0.2 mi Calm Calm - N/A Fog Fog
7:54 AM 41.0 °F 38.0 °F 41.0 °F 100% 30.28 in 0.2 mi SW 4.6 mph - N/A Fog Fog
8:54 AM 41.0 °F - 41.0 °F 100% 30.28 in 0.2 mi Calm Calm - N/A Fog Fog
9:54 AM 42.1 °F - 42.1 °F 100% 30.30 in 0.2 mi Calm Calm - N/A Fog Fog
10:54 AM 44.1 °F - 43.0 °F 96% 30.29 in 0.2 mi Calm Calm - N/A Fog Fog
11:54 AM 46.0 °F - 46.0 °F 100% 30.26 in 0.2 mi Calm Calm - N/A Fog Fog
12:54 PM 48.0 °F - 46.9 °F 96% 30.23 in 1.2 mi Calm Calm - N/A   Overcast
1:13 PM 48.2 °F - 48.2 °F 100% 30.23 in 2.0 mi Calm Calm - N/A   Overcast
1:33 PM 50.0 °F - 48.2 °F 94% 30.22 in 3.0 mi Calm Calm - N/A   Scattered Clouds
1:54 PM 54.0 °F - 48.9 °F 83% 30.21 in 4.0 mi Calm Calm - N/A   Haze
2:54 PM 57.0 °F - 48.9 °F 74% 30.19 in 6.0 mi Calm Calm - N/A   Haze
3:54 PM 55.9 °F - 50.0 °F 80% 30.17 in 3.0 mi East 8.1 mph - N/A   Haze
4:37 PM 51.8 °F - 46.4 °F 82% 30.16 in 2.5 mi East 6.9 mph - N/A   Haze
4:54 PM 50.0 °F - 46.0 °F 86% 30.16 in 2.5 mi East 5.8 mph - N/A   Clear
5:10 PM 48.2 °F - 44.6 °F 87% 30.16 in 3.0 mi ESE 8.1 mph - N/A   Clear
5:54 PM 45.0 °F 41.2 °F 42.1 °F 90% 30.16 in 3.0 mi ESE 6.9 mph - N/A   Clear
6:49 PM 44.6 °F 43.1 °F 41.0 °F 87% 30.16 in 2.5 mi East 3.5 mph - N/A   Clear
6:54 PM 44.1 °F 41.5 °F 42.1 °F 93% 30.16 in 2.5 mi East 4.6 mph - N/A   Clear
7:54 PM 42.1 °F 37.7 °F 41.0 °F 96% 30.16 in 2.0 mi East 6.9 mph - N/A   Clear
8:05 PM 42.8 °F 40.1 °F 41.0 °F 93% 30.15 in 1.8 mi East 4.6 mph - N/A   Clear
8:54 PM 42.1 °F 38.4 °F 41.0 °F 96% 30.15 in 1.5 mi ENE 5.8 mph - N/A   Clear
9:13 PM 42.8 °F 40.1 °F 42.8 °F 100% 30.15 in 2.0 mi ENE 4.6 mph - N/A   Clear
9:34 PM 44.6 °F 42.2 °F 44.6 °F 100% 30.15 in 3.0 mi ENE 4.6 mph - N/A   Clear
9:54 PM 45.0 °F 41.8 °F 43.0 °F 93% 30.15 in 3.0 mi East 5.8 mph - N/A   Clear
10:07 PM 42.8 °F 39.3 °F 42.8 °F 100% 30.15 in 2.5 mi ENE 5.8 mph - N/A   Clear
10:54 PM 43.0 °F 38.8 °F 41.0 °F 93% 30.15 in 2.5 mi East 6.9 mph - N/A   Clear
11:18 PM 39.2 °F 33.6 °F 39.2 °F 100% 30.14 in 1.8 mi East 8.1 mph - 0.01 in   Clear
11:54 PM 41.0 °F 36.4 °F 39.9 °F 96% 30.14 in 2.0 mi East 6.9 mph - 0.01 in   Clear